Weather History for Kalaeloa, HI

Change the Weather History Date:

Friday, May 17, 2013

  Actual Average (PHNL) Record (PHNL)
Temperature  
Mean Temperature 74 °F 78 °F  
Max Temperature 82 °F 85 °F 89 °F (1988)
Min Temperature 66 °F 71 °F 65 °F (2006)
Degree Days  
Heating Degree Days 0 0  
Month to date heating degree days 0  
Since 1 July heating degree days 0  
Cooling Degree Days 9 13  
Month to date cooling degree days 207  
Year to date cooling degree days 1314  
Growing Degree Days 24 (Base 50)    
Moisture  
Dew Point 63 °F    
Average Humidity 70    
Maximum Humidity 88    
Minimum Humidity 47    
Precipitation  
Precipitation 0.00 in 0.02 in 0.67 in (1992)
Month to date precipitation 0.38  
Year to date precipitation 7.33  
Snow  
Snow 0.00 in - - ()
Month to date snowfall  
Since 1 July snowfall  
Snow Depth -    
Sea Level Pressure  
Sea Level Pressure 30.08 in    
Wind  
Wind Speed 3 mph (ENE)    
Max Wind Speed 12 mph    
Max Gust Speed 22 mph    
Visibility 10 miles    
Events      
T = Trace of Precipitation, MM = Missing Value Source: NWS Daily Summary

Daily Weather History Graph

Daily Weather History Graph

Search for Another Location

Airport:

Trip Planner

Search our weather history database for the weather conditions in past years. The results will help you decide how hot, cold, wet, or windy it might be!

Date:

Astronomy

May. 17, 2013 Rise Set
Actual Time 5:53 AM HST 7:04 PM HST
Civil Twilight 5:29 AM HST 7:28 PM HST
Nautical Twilight 5:00 AM HST 7:56 PM HST
Astronomical Twilight 4:31 AM HST 8:26 PM HST
Moon 12:14 PM HST (5/17) 12:22 AM HST (5/17)
Length of Visible Light 13h 59m
Length of Day
13h 11m
Waxing Crescent, 47% of the Moon is Illuminated
May 17
Waxing Crescent
May 17
First Quarter
May 24
Full
May 31
Last Quarter
Jun 8
New

Hourly Weather History & Observations

Time (HST) Temp. Heat Index Dew Point Humidity Pressure Visibility Wind Dir Wind Speed Gust Speed Precip Events Conditions
12:53 AM 70.0 °F - 64.0 °F 81% 30.11 in 10.0 mi Calm Calm - N/A   Partly Cloudy
1:20 AM 71.6 °F - 64.4 °F 78% 30.08 in 10.0 mi ENE 4.6 mph - N/A   Scattered Clouds
1:53 AM 69.1 °F - 64.0 °F 84% 30.09 in 10.0 mi Calm Calm - N/A   Partly Cloudy
2:53 AM 68.0 °F - 63.0 °F 84% 30.08 in 10.0 mi Calm Calm - N/A   Clear
3:53 AM 69.1 °F - 63.0 °F 81% 30.08 in 10.0 mi Calm Calm - N/A   Clear
4:00 AM 69.8 °F - 62.6 °F 78% 30.06 in 10.0 mi Calm Calm - N/A   Scattered Clouds
4:53 AM 69.1 °F - 64.0 °F 84% 30.08 in 10.0 mi Calm Calm - N/A   Clear
5:17 AM 68.0 °F - 62.6 °F 83% 30.06 in 10.0 mi Calm Calm - N/A   Scattered Clouds
5:26 AM 66.2 °F - 62.6 °F 88% 30.06 in 10.0 mi Calm Calm - N/A   Mostly Cloudy
5:53 AM 68.0 °F - 63.0 °F 84% 30.08 in 10.0 mi Calm Calm - N/A   Overcast
6:05 AM 68.0 °F - 62.6 °F 83% 30.06 in 10.0 mi Calm Calm - N/A   Partly Cloudy
6:53 AM 70.0 °F - 64.0 °F 81% 30.09 in 10.0 mi ENE 3.5 mph - N/A   Partly Cloudy
7:02 AM 69.8 °F - 64.4 °F 83% 30.08 in 10.0 mi ENE 4.6 mph - N/A   Scattered Clouds
7:53 AM 75.0 °F - 64.0 °F 69% 30.10 in 10.0 mi East 9.2 mph 17.3 mph N/A   Clear
8:53 AM 78.1 °F - 63.0 °F 60% 30.11 in 10.0 mi East 11.5 mph 18.4 mph N/A   Partly Cloudy
9:53 AM 79.0 °F - 62.1 °F 56% 30.11 in 10.0 mi ENE 10.4 mph 21.9 mph N/A   Partly Cloudy
10:53 AM 82.0 °F 82.7 °F 61.0 °F 49% 30.10 in 10.0 mi East 9.2 mph 17.3 mph N/A   Clear
11:53 AM 81.0 °F 81.9 °F 62.1 °F 52% 30.09 in 10.0 mi Variable 5.8 mph 17.3 mph N/A   Scattered Clouds
12:53 PM 82.0 °F 83.0 °F 62.1 °F 51% 30.07 in 10.0 mi Variable 6.9 mph - N/A   Mostly Cloudy
1:53 PM 82.0 °F 83.0 °F 62.1 °F 51% 30.06 in 10.0 mi Variable 6.9 mph 16.1 mph N/A   Scattered Clouds
2:53 PM 82.9 °F 83.7 °F 62.1 °F 49% 30.04 in 10.0 mi Variable 6.9 mph 18.4 mph N/A   Clear
3:53 PM 82.0 °F 82.4 °F 60.1 °F 47% 30.03 in 10.0 mi Variable 6.9 mph - N/A   Clear
4:53 PM 81.0 °F 81.9 °F 62.1 °F 52% 30.02 in 10.0 mi Variable 5.8 mph - N/A   Scattered Clouds
5:53 PM 79.0 °F - 62.1 °F 56% 30.04 in 10.0 mi Variable 5.8 mph - N/A   Clear
6:53 PM 75.0 °F - 63.0 °F 66% 30.05 in 10.0 mi Variable 3.5 mph - N/A   Clear
7:53 PM 73.0 °F - 63.0 °F 71% 30.07 in 10.0 mi Calm Calm - N/A   Clear
8:53 PM 71.1 °F - 63.0 °F 75% 30.09 in 10.0 mi Calm Calm - N/A   Clear
9:53 PM 71.1 °F - 63.0 °F 75% 30.09 in 10.0 mi ENE 3.5 mph - N/A   Clear
10:53 PM 71.1 °F - 63.0 °F 75% 30.09 in 10.0 mi Calm Calm - N/A   Clear
11:53 PM 70.0 °F - 63.0 °F 78% 30.08 in 10.0 mi Calm Calm - N/A   Clear